Universal City, TX

3:53 AM CST on December 03, 2016 (GMT -0600)
Randolph Air Force Base

Weather History for KRND - June, 2013

Change the Weather History Date:

Saturday, June 29, 2013

  Actual Average Record
Temperature  
Mean Temperature 92 °F -  
Max Temperature 106 °F 89 °F 106 °F (2013)
Min Temperature 78 °F 72 °F 68 °F (2006)
Cooling Degree Days 27    
Growing Degree Days 42 (Base 50)    
Moisture  
Dew Point 64 °F    
Average Humidity 45    
Maximum Humidity 75    
Minimum Humidity 19    
Precipitation  
Precipitation 0.00 in - - ()
Sea Level Pressure  
Sea Level Pressure 29.81 in    
Wind  
Wind Speed 6 mph (SSW)    
Max Wind Speed 13 mph    
Max Gust Speed 18 mph    
Visibility 10 miles    
Events      
Averages and records for this station are not official NWS values.
T = Trace of Precipitation, MM = Missing Value Source: NWS Daily Summary

Daily Weather History Graph

Daily Weather History Graph

Search for Another Location

Airport or City:

Trip Planner

Search our weather history database for the weather conditions in past years. The results will help you decide how hot, cold, wet, or windy it might be!

Date:

Astronomy

Jun. 29, 2013 Rise Set
Actual Time 6:36 AM CDT 8:37 PM CDT
Civil Twilight 6:08 AM CDT 9:04 PM CDT
Nautical Twilight 5:35 AM CDT 9:37 PM CDT
Astronomical Twilight 5:00 AM CDT 10:12 PM CDT
Moon 12:38 AM CDT (6/29) 1:15 PM CDT (6/29)
Length of Visible Light 14h 55m
Length of Day
14h 01m
Waning Gibbous, 55% of the Moon is Illuminated
Jun 29
Waning Gibbous
Jun 29
Last Quarter
Jul 8
New
Jul 15
First Quarter
Jul 22
Full

Hourly Weather History & Observations

Time (CDT) Temp. Heat Index Dew Point Humidity Pressure Visibility Wind Dir Wind Speed Gust Speed Precip Events Conditions
12:58 AM 83.5 °F 85.5 °F 66.0 °F 55% 29.84 in 10.0 mi SSW 5.8 mph - N/A   Clear
1:58 AM 81.9 °F 84.6 °F 67.8 °F 62% 29.84 in 10.0 mi SW 5.8 mph - N/A   Clear
2:58 AM 81.3 °F 84.8 °F 69.8 °F 68% 29.85 in 10.0 mi WSW 4.6 mph - N/A   Clear
3:58 AM 80.8 °F 84.2 °F 70.0 °F 70% 29.84 in 10.0 mi SW 5.8 mph - N/A   Clear
4:58 AM 79.5 °F - 69.6 °F 72% 29.84 in 10.0 mi WSW 2.3 mph - N/A   Clear
5:58 AM 79.0 °F - 69.6 °F 73% 29.85 in 10.0 mi SSW 2.3 mph - N/A   Clear
6:58 AM 78.1 °F - 69.6 °F 75% 29.86 in 10.0 mi WSW 3.5 mph - N/A   Clear
7:58 AM 81.0 °F 84.4 °F 70.0 °F 69% 29.87 in 10.0 mi WSW 4.6 mph - N/A   Clear
8:58 AM 85.6 °F 90.1 °F 69.8 °F 59% 29.87 in 10.0 mi WSW 9.2 mph - N/A   Clear
9:58 AM 89.4 °F 94.4 °F 69.4 °F 52% 29.86 in 10.0 mi WSW 11.5 mph - N/A   Clear
10:58 AM 93.0 °F 97.9 °F 68.5 °F 45% 29.85 in 10.0 mi West 10.4 mph - N/A   Clear
11:58 AM 97.3 °F 101.7 °F 67.1 °F 37% 29.84 in 10.0 mi WNW 8.1 mph - N/A   Clear
2:58 PM 105.1 °F 105.7 °F 59.4 °F 22% 29.79 in 10.0 mi ENE 12.7 mph 17.3 mph N/A   Clear
3:00 PM 105.8 °F 107.5 °F 60.8 °F 23% 29.82 in 10.0 mi NNE 12.7 mph 17.3 mph N/A   Clear
3:58 PM 106.7 °F 107.5 °F 58.6 °F 21% 29.77 in 10.0 mi NE 5.8 mph 18.4 mph N/A   Partly Cloudy
4:58 PM 106.2 °F 107.4 °F 59.4 °F 22% 29.75 in 10.0 mi Variable 5.8 mph - N/A   Clear
5:58 PM 106.0 °F 105.1 °F 56.3 °F 19% 29.73 in 10.0 mi East 6.9 mph - N/A   Clear
6:58 PM 103.8 °F 103.8 °F 57.4 °F 22% 29.72 in 10.0 mi East 8.1 mph - N/A   Clear
7:58 PM 99.5 °F 99.4 °F 58.6 °F 26% 29.73 in 10.0 mi East 5.8 mph - N/A   Clear
8:58 PM 95.4 °F 94.6 °F 58.1 °F 29% 29.74 in 10.0 mi ENE 6.9 mph - N/A   Clear
9:58 PM 91.6 °F 90.4 °F 57.6 °F 32% 29.75 in 10.0 mi ENE 8.1 mph - N/A   Clear
10:58 PM 90.5 °F 89.5 °F 58.8 °F 34% 29.77 in 10.0 mi East 8.1 mph - N/A   Clear
11:58 PM 88.3 °F 87.6 °F 59.4 °F 37% 29.79 in 10.0 mi ENE 5.8 mph - N/A   Mostly Cloudy